KB3VSP Weather Reports


time (UTC)temp
C
wind
direction
speed
KPH
gust
KPH
rain 1hr
cm
rain 24hr
cm
rain mn
cm
humidity
%
barometer
mb
20260508012849 9 1 0.0 1.6 0.00 0.00 0.00 63 1013.4
20260508012346 10 1 1.6 1.6 0.00 0.00 0.00 62 1013.5
20260508011844 10 1 1.6 1.6 0.00 0.00 0.00 61 1013.3
20260508011342 10 1 1.6 1.6 0.00 0.00 0.00 61 1013.1
20260508010839 10 1 1.6 1.6 0.00 0.00 0.00 60 1013.3
20260508010336 10 356 1.6 3.2 0.00 0.00 0.00 60 1013.3
20260508005833 10 351 1.6 1.6 0.00 0.00 0.00 60 1013.0
20260508005330 10 11 1.6 1.6 0.00 0.00 0.00 58 1012.7
20260508004826 10 334 3.2 3.2 0.00 0.00 0.00 58 1013.1
20260508004322 11 317 3.2 4.8 0.00 0.00 0.00 56 1012.7
20260508003819 11 295 6.4 8.0 0.00 0.00 0.00 56 1012.9
20260508003316 11 290 3.2 3.2 0.00 0.00 0.00 55 1012.8
20260508002813 11 301 3.2 4.8 0.00 0.00 0.00 52 1012.6
20260508002310 11 351 3.2 3.2 0.00 0.00 0.00 51 1012.6
20260508001806 11 303 4.8 8.0 0.00 0.00 0.00 50 1012.4
20260508001302 11 325 3.2 4.8 0.00 0.00 0.00 51 1012.4
20260508000758 11 354 3.2 3.2 0.00 0.00 0.00 50 1012.3
20260508000257 12 295 4.8 8.0 0.00 0.00 0.00 50 1012.2
20260507235752 12 353 1.6 3.2 0.00 0.00 0.00 50 1012.2
20260507235249 12 332 1.6 3.2 0.00 0.00 0.00 50 1012.0
20260507234746 12 290 4.8 4.8 0.00 0.00 0.00 50 1012.0
20260507234242 12 287 6.4 8.0 0.00 0.00 0.00 50 1012.2
20260507233738 12 321 9.7 11.3 0.00 0.00 0.00 46 1012.3
20260507233237 12 271 8.0 9.7 0.00 0.00 0.00 46 1011.8
20260507232734 12 312 8.0 8.0 0.00 0.00 0.00 45 1011.8
20260507232231 13 341 6.4 8.0 0.00 0.00 0.00 46 1011.8
20260507231727 13 315 4.8 8.0 0.00 0.00 0.00 46 1011.9
20260507231224 13 292 4.8 4.8 0.00 0.00 0.00 44 1011.7
20260507230721 12 302 6.4 9.7 0.00 0.00 0.00 45 1011.9
20260507230219 12 309 4.8 4.8 0.00 0.00 0.00 45 1011.8
20260507225717 13 298 4.8 4.8 0.00 0.00 0.00 47 1011.6
20260507225215 13 298 4.8 4.8 0.00 0.00 0.00 44 1011.7
20260507224710 13 314 4.8 4.8 0.00 0.00 0.00 44 1011.5
20260507224207 13 324 4.8 4.8 0.00 0.00 0.00 44 1011.6
20260507223703 13 310 6.4 8.0 0.00 0.00 0.00 43 1011.4
20260507223200 13 297 8.0 11.3 0.00 0.00 0.00 43 1011.4
20260507222657 14 297 6.4 9.7 0.00 0.00 0.00 42 1011.3
20260507222153 13 325 4.8 8.0 0.00 0.00 0.00 41 1011.2
20260507221650 13 294 3.2 3.2 0.00 0.00 0.00 42 1011.3
20260507221146 13 295 4.8 4.8 0.00 0.00 0.00 42 1011.4
20260507220643 13 355 1.6 1.6 0.00 0.00 0.00 42 1011.2
20260507220142 15 305 6.4 8.0 0.00 0.00 0.00 42 1011.1
20260507215637 13 8 1.6 3.2 0.00 0.00 0.00 44 1010.9
20260507215135 15 295 4.8 4.8 0.00 0.00 0.00 41 1011.2
20260507214632 15 319 4.8 4.8 0.00 0.00 0.00 44 1010.8
20260507214128 15 316 4.8 8.0 0.00 0.00 0.00 40 1010.7
20260507213625 15 300 6.4 9.7 0.00 0.00 0.00 40 1010.9
20260507213122 15 322 6.4 8.0 0.00 0.00 0.00 40 1010.8
20260507212618 15 318 4.8 8.0 0.00 0.00 0.00 41 1010.7
20260507212115 14 342 4.8 4.8 0.00 0.00 0.00 42 1010.8
20260507211611 13 307 6.4 8.0 0.00 0.00 0.00 42 1010.8
20260507211107 14 294 4.8 8.0 0.00 0.00 0.00 42 1010.8
20260507210605 15 286 6.4 8.0 0.00 0.00 0.00 40 1010.9
20260507205558 15 302 4.8 4.8 0.00 0.00 0.00 39 1010.5
20260507205054 15 281 6.4 8.0 0.00 0.00 0.00 42 1010.3
20260507204551 15 326 4.8 4.8 0.00 0.00 0.00 43 1010.7
20260507204048 15 326 4.8 4.8 0.00 0.00 0.00 41 1010.1
20260507203546 15 351 3.2 3.2 0.00 0.00 0.00 43 1010.4
20260507203043 15 251 4.8 8.0 0.00 0.00 0.00 41 1010.5
20260507202539 14 325 1.6 3.2 0.00 0.00 0.00 42 1010.7
20260507202035 14 313 8.0 9.7 0.00 0.00 0.00 42 1010.5
20260507201531 15 329 3.2 4.8 0.00 0.00 0.00 40 1010.5
20260507201027 15 288 6.4 8.0 0.00 0.00 0.00 41 1010.7
20260507200523 16 338 4.8 4.8 0.00 0.00 0.00 42 1010.5
20260507200019 15 318 4.8 8.0 0.00 0.00 0.00 46 1010.9
20260507195517 15 296 4.8 4.8 0.00 0.00 0.00 40 1010.8
20260507195014 15 299 6.4 8.0 0.00 0.00 0.00 40 1011.0
20260507194510 15 270 4.8 4.8 0.00 0.00 0.00 39 1010.5
20260507194006 15 303 3.2 3.2 0.00 0.00 0.00 40 1010.9
20260507193504 15 355 4.8 4.8 0.00 0.00 0.00 40 1010.8
20260507193000 15 270 8.0 9.7 0.00 0.00 0.00 38 1011.1
20260507192456 15 317 1.6 3.2 0.00 0.00 0.00 42 1010.8
20260507191954 14 323 6.4 9.7 0.00 0.00 0.00 43 1011.1
20260507191449 15 334 4.8 4.8 0.00 0.00 0.00 40 1010.9
20260507190946 15 344 3.2 3.2 0.00 0.00 0.00 42 1010.9
20260507190444 14 285 6.4 8.0 0.00 0.00 0.00 42 1010.9
20260507185942 13 302 4.8 4.8 0.00 0.00 0.00 41 1010.9
20260507185439 14 253 6.4 8.0 0.00 0.00 0.00 42 1011.1
20260507184936 14 320 6.4 8.0 0.00 0.00 0.00 42 1011.0
20260507184434 15 308 6.4 8.0 0.00 0.00 0.00 41 1011.0
20260507183932 15 314 4.8 4.8 0.00 0.00 0.00 40 1011.1
20260507183428 15 272 3.2 3.2 0.00 0.00 0.00 41 1011.2
20260507182926 14 321 4.8 4.8 0.00 0.00 0.00 41 1011.1
20260507182421 15 312 4.8 4.8 0.00 0.00 0.00 46 1011.2
20260507181918 15 329 8.0 8.0 0.00 0.00 0.00 42 1011.2
20260507181414 15 320 3.2 4.8 0.00 0.00 0.00 44 1011.4
20260507180911 14 352 6.4 8.0 0.00 0.00 0.00 44 1011.4
20260507180407 14 296 6.4 8.0 0.00 0.00 0.00 46 1011.4
20260507175903 15 343 3.2 3.2 0.00 0.00 0.00 45 1011.4
20260507175400 15 294 4.8 4.8 0.00 0.00 0.00 49 1011.4
20260507174858 14 348 1.6 1.6 0.00 0.00 0.00 45 1011.5
20260507174355 15 226 1.6 1.6 0.00 0.00 0.00 46 1011.5
20260507173853 15 295 3.2 3.2 0.00 0.00 0.00 45 1011.5
20260507173349 15 311 4.8 8.0 0.00 0.00 0.00 47 1011.6
20260507172846 15 312 3.2 3.2 0.00 0.00 0.00 47 1011.7
20260507172342 14 240 4.8 8.0 0.00 0.00 0.00 46 1011.8
20260507171838 15 21 3.2 4.8 0.00 0.00 0.00 44 1011.8
20260507171335 14 268 6.4 9.7 0.00 0.00 0.00 47 1011.8
20260507170832 15 150 4.8 4.8 0.00 0.00 0.00 48 1011.6
20260507170329 15 350 3.2 4.8 0.00 0.00 0.00 46 1012.0
20260507165825 14 300 8.0 9.7 0.00 0.00 0.00 45 1011.9
20260507165321 13 188 3.2 3.2 0.00 0.00 0.00 50 1011.9
20260507164817 13 304 8.0 11.3 0.00 0.00 0.00 51 1012.1
20260507164314 13 343 6.4 9.7 0.00 0.00 0.00 51 1012.2
20260507163811 13 7 3.2 3.2 0.00 0.00 0.00 51 1012.1
20260507163309 13 306 3.2 3.2 0.00 0.00 0.00 54 1012.1
20260507162805 12 279 8.0 9.7 0.00 0.00 0.00 53 1012.0
20260507162301 12 338 1.6 1.6 0.00 0.00 0.00 54 1012.1
20260507161758 12 313 6.4 8.0 0.00 0.00 0.00 52 1012.3
20260507161254 12 334 3.2 3.2 0.00 0.00 0.00 55 1012.1
20260507160750 12 269 4.8 4.8 0.00 0.00 0.00 53 1012.4
20260507160247 13 346 3.2 3.2 0.00 0.00 0.00 51 1012.3
20260507155743 12 325 3.2 3.2 0.00 0.00 0.00 56 1012.3
20260507155239 12 302 4.8 4.8 0.00 0.00 0.00 52 1012.2
20260507154736 12 261 4.8 8.0 0.00 0.00 0.00 55 1012.7
20260507154234 12 1 3.2 3.2 0.00 0.00 0.00 54 1012.5
20260507153730 12 305 4.8 4.8 0.00 0.00 0.00 51 1012.6
20260507153226 12 306 6.4 8.0 0.00 0.00 0.00 51 1012.5
20260507152723 12 341 4.8 4.8 0.00 0.00 0.00 52 1012.5
20260507152219 12 275 3.2 3.2 0.00 0.00 0.00 54 1012.6
20260507151715 12 355 0.0 1.6 0.00 0.00 0.00 54 1012.9
20260507151212 12 336 4.8 4.8 0.00 0.00 0.00 57 1012.9
20260507150709 11 243 6.4 9.7 0.00 0.00 0.00 56 1012.9
20260507150206 11 321 3.2 3.2 0.00 0.00 0.00 55 1013.1
20260507145701 11 327 6.4 8.0 0.00 0.00 0.00 56 1013.1
20260507145158 11 302 4.8 4.8 0.00 0.00 0.00 56 1013.0
20260507144655 12 279 4.8 8.0 0.00 0.00 0.00 56 1013.2
20260507144153 12 267 3.2 3.2 0.00 0.00 0.00 55 1013.1
20260507143649 11 291 8.0 9.7 0.00 0.00 0.00 57 1013.2
20260507143147 11 290 3.2 3.2 0.00 0.00 0.00 59 1013.3
20260507142642 11 358 1.6 3.2 0.00 0.00 0.00 60 1013.3
20260507142139 11 281 3.2 4.8 0.00 0.00 0.00 59 1013.2
20260507141635 11 310 1.6 3.2 0.00 0.00 0.00 63 1013.5
20260507141132 10 73 1.6 1.6 0.00 0.00 0.00 65 1013.7
20260507140629 10 42 0.0 0.0 0.00 0.00 0.00 67 1013.5
20260507140126 10 14 0.0 0.0 0.00 0.00 0.00 67 1013.7
20260507135623 10 324 3.2 3.2 0.00 0.00 0.00 67 1014.1
20260507135121 10 304 6.4 8.0 0.00 0.00 0.00 70 1013.8
20260507134617 10 10 0.0 0.0 0.00 0.00 0.00 70 1013.7
20260507134113 10 334 3.2 3.2 0.00 0.00 0.00 72 1013.9
20260507133609 9 355 1.6 3.2 0.00 0.00 0.00 75 1013.9
20260507133107 8 315 4.8 4.8 0.00 0.00 0.00 75 1014.0
20260507132603 8 37 0.0 0.0 0.00 0.00 0.00 79 1013.9
20260507132100 8 39 0.0 0.0 0.00 0.00 0.00 79 1013.9
20260507131557 8 60 1.6 1.6 0.00 0.00 0.00 80 1013.8
20260507131054 8 53 0.0 1.6 0.00 0.00 0.00 81 1014.3
20260507130551 8 54 0.0 1.6 0.00 0.00 0.00 82 1014.0
20260507130049 7 25 1.6 3.2 0.00 0.00 0.00 84 1014.0
20260507125547 7 58 0.0 1.6 0.00 0.00 0.00 89 1013.9
20260507125044 6 72 1.6 1.6 0.00 0.00 0.00 94 1013.9
20260507124540 6 60 0.0 1.6 0.00 0.00 0.00 97 1013.9
20260507124039 6 58 0.0 1.6 0.00 0.00 0.00 99 1014.0
20260507123536 5 28 0.0 0.0 0.00 0.00 0.00 99 1014.0
20260507123033 5 47 0.0 0.0 0.00 0.00 0.00 99 1014.1
20260507122528 5 50 0.0 0.0 0.00 0.00 0.00 99 1014.0
20260507122024 5 44 0.0 0.0 0.00 0.00 0.00 99 1013.9
20260507121520 5 44 0.0 0.0 0.00 0.00 0.00 99 1014.2
20260507121016 4 34 0.0 0.0 0.00 0.00 0.00 99 1014.2
20260507120512 4 34 0.0 0.0 0.00 0.00 0.00 99 1014.0
20260507120010 3 34 0.0 0.0 0.00 0.00 0.00 99 1013.9
20260507115505 3 34 0.0 0.0 0.00 0.00 0.00 99 1014.2
20260507115001 3 34 0.0 0.0 0.00 0.00 0.00 99 1014.1
20260507114457 3 34 0.0 0.0 0.00 0.00 0.00 99 1014.1
20260507113955 2 34 0.0 0.0 0.00 0.00 0.00 99 1014.1
20260507113452 2 34 0.0 0.0 0.00 0.00 0.00 99 1014.2
20260507112949 2 34 0.0 0.0 0.00 0.00 0.00 99 1014.0
20260507112447 2 34 0.0 0.0 0.00 0.00 0.00 99 1013.9
20260507111943 2 34 0.0 0.0 0.00 0.00 0.00 99 1014.0
20260507111441 1 34 0.0 0.0 0.00 0.00 0.00 99 1013.9
20260507110937 1 34 0.0 0.0 0.00 0.00 0.00 99 1013.9
20260507110433 -17 0.0 0.0 0.00 0.00 0.00 1013.8
20260507105930 1 34 0.0 0.0 0.00 0.00 0.00 99 1013.9
20260507105427 1 34 0.0 0.0 0.00 0.00 0.00 99 1013.7
20260507104923 1 34 0.0 0.0 0.00 0.00 0.00 99 1013.7
20260507104421 1 34 0.0 0.0 0.00 0.00 0.00 99 1014.0
20260507103916 1 34 0.0 0.0 0.00 0.00 0.00 99 1013.4
20260507103413 -17 0.0 0.0 0.00 0.00 0.00 1013.5
20260507102909 -17 0.0 0.0 0.00 0.00 0.00 1013.4
20260507102406 1 34 0.0 0.0 0.00 0.00 0.00 99 1013.5
20260507101902 1 34 0.0 0.0 0.00 0.00 0.00 99 1013.5
20260507101357 -17 0.0 0.0 0.00 0.00 0.00 1013.4
20260507100854 -17 0.0 0.0 0.00 0.00 0.00 1013.4
20260507100352 -17 0.0 0.0 0.00 0.00 0.00 1013.5
20260507095850 -17 0.0 0.0 0.00 0.00 0.00 1013.4
20260507095346 -17 0.0 0.0 0.00 0.00 0.00 1013.5
20260507094844 -17 0.0 0.0 0.00 0.00 0.00 1013.5
20260507094339 1 34 0.0 0.0 0.00 0.00 0.00 99 1013.2
20260507093837 1 34 0.0 0.0 0.00 0.00 0.00 99 1013.3
20260507093335 1 34 0.0 0.0 0.00 0.00 0.00 99 1013.3
20260507092833 -17 0.0 0.0 0.00 0.00 0.00 1013.5
20260507092329 2 34 0.0 0.0 0.00 0.00 0.00 99 1013.2
20260507091825 2 34 0.0 0.0 0.00 0.00 0.00 99 1013.5
20260507091322 2 34 0.0 0.0 0.00 0.00 0.00 99 1013.4
20260507090818 2 34 0.0 0.0 0.00 0.00 0.00 99 1013.5
20260507090314 2 34 0.0 0.0 0.00 0.00 0.00 99 1013.5
20260507085811 2 34 0.0 0.0 0.00 0.00 0.00 99 1013.7
20260507085308 2 34 0.0 0.0 0.00 0.00 0.00 99 1013.5
20260507084806 2 33 0.0 0.0 0.00 0.00 0.00 99 1013.4
20260507084301 2 33 0.0 0.0 0.00 0.00 0.00 99 1013.4
20260507083759 2 34 0.0 0.0 0.00 0.00 0.00 99 1013.3
20260507083256 2 34 0.0 0.0 0.00 0.00 0.00 99 1013.5
20260507082752 2 33 0.0 0.0 0.00 0.00 0.00 98 1013.5
20260507082248 2 33 0.0 0.0 0.00 0.00 0.00 98 1013.5
20260507081745 2 33 0.0 0.0 0.00 0.00 0.00 98 1013.5
20260507081240 2 33 0.0 0.0 0.00 0.00 0.00 98 1013.4
20260507080737 3 33 0.0 0.0 0.00 0.00 0.00 98 1013.5
20260507080234 3 33 0.0 0.0 0.00 0.00 0.00 98 1013.7
20260507075729 -17 0.0 0.0 0.00 0.00 0.00 1013.7
20260507075225 -17 0.0 0.0 0.00 0.00 0.00 1013.8
20260507074722 -17 0.0 0.0 0.00 0.00 0.00 1013.9
20260507074220 3 13 0.0 0.0 0.00 0.00 0.00 97 1013.7
20260507073716 3 13 0.0 0.0 0.00 0.00 0.00 97 1013.7
20260507073213 3 11 1.6 1.6 0.00 0.00 0.00 96 1013.7
20260507072711 -17 0.0 0.0 0.00 0.00 0.00 1013.4
20260507072208 -17 0.0 0.0 0.00 0.00 0.00 1013.7
20260507071705 -17 0.0 0.0 0.00 0.00 0.00 1013.5
20260507071202 -17 0.0 0.0 0.00 0.00 0.00 1014.0
20260507070659 4 44 0.0 0.0 0.00 0.00 0.00 95 1013.7
20260507070156 4 44 0.0 0.0 0.00 0.00 0.00 95 1013.9
20260507065652 -17 0.0 0.0 0.00 0.00 0.00 1014.0
20260507065149 5 44 0.0 0.0 0.00 0.00 0.00 94 1013.9
20260507064646 5 44 0.0 0.0 0.00 0.00 0.00 94 1013.5
20260507064145 -17 0.0 0.0 0.00 0.00 0.00 1013.8
20260507063642 -17 0.0 0.0 0.00 0.00 0.00 1013.9
20260507063139 -17 0.0 0.0 0.00 0.00 0.00 1013.8
20260507062636 -17 0.0 0.0 0.00 0.00 0.00 1013.9
20260507062133 6 44 0.0 0.0 0.00 0.00 0.00 92 1013.9
20260507061631 6 44 0.0 0.0 0.00 0.00 0.00 92 1013.9
20260507061129 6 44 0.0 0.0 0.00 0.00 0.00 91 1014.0
20260507060627 6 44 0.0 0.0 0.00 0.00 0.00 89 1013.9
20260507060123 6 44 0.0 0.0 0.00 0.00 0.00 89 1014.3
20260507055618 -17 0.0 0.0 0.00 0.00 0.00 1014.1
20260507055114 -17 0.0 0.0 0.00 0.00 0.00 1014.1
20260507054610 -17 0.0 0.0 0.00 0.00 0.00 1014.0
20260507054108 -17 0.0 0.0 0.00 0.00 0.00 1014.2
20260507053606 -17 0.0 0.0 0.00 0.00 0.00 1014.4
20260507053104 -17 0.0 0.0 0.00 0.00 0.00 1014.4
20260507052602 -17 0.0 0.0 0.00 0.00 0.00 1014.2
20260507052058 -17 0.0 0.0 0.00 0.00 0.00 1014.5
20260507051555 -17 0.0 0.0 0.00 0.00 0.00 1014.5
20260507051052 -17 0.0 0.0 0.00 0.00 0.00 1014.6
20260507050549 -17 0.0 0.0 0.00 0.00 0.00 1014.6
20260507050046 7 44 0.0 0.0 0.00 1.27 1.27 86 1014.7
20260507045542 7 44 0.0 0.0 0.00 1.27 1.27 85 1014.6
20260507045039 7 44 0.0 0.0 0.00 1.27 1.27 85 1014.8
20260507044536 -17 0.0 0.0 0.00 0.00 0.00 1014.7
20260507044033 -17 0.0 0.0 0.00 0.00 0.00 1014.6
20260507043528 -17 0.0 0.0 0.00 0.00 0.00 1014.7
20260507043026 -17 0.0 0.0 0.00 0.00 0.00 1014.7
20260507042522 7 44 0.0 0.0 0.00 1.27 1.27 83 1014.5
20260507042017 7 44 0.0 0.0 0.00 1.27 1.27 83 1014.6
20260507041515 7 44 0.0 0.0 0.00 1.27 1.27 80 1014.5
20260507041012 7 44 0.0 0.0 0.00 1.27 1.27 81 1014.5
20260507040508 7 44 0.0 0.0 0.00 1.27 1.27 83 1014.4
20260507040004 7 44 0.0 0.0 0.00 1.27 1.27 80 1014.4
20260507035500 7 44 0.0 0.0 0.00 1.27 1.27 79 1014.5
20260507034957 7 44 0.0 0.0 0.00 1.27 1.27 79 1014.5
20260507034454 7 44 0.0 0.0 0.00 1.27 1.27 79 1014.7
20260507033952 7 44 0.0 0.0 0.00 1.27 1.27 80 1014.6
20260507033449 7 44 0.0 0.0 0.00 1.27 1.27 81 1014.3
20260507032946 7 44 0.0 0.0 0.00 1.27 1.27 81 1014.4
20260507032443 7 44 0.0 0.0 0.00 1.27 1.27 82 1014.1
20260507031939 7 44 0.0 0.0 0.00 1.27 1.27 78 1014.2
20260507031436 7 44 0.0 0.0 0.00 1.27 1.27 78 1014.3
20260507030933 7 44 0.0 0.0 0.00 1.27 1.27 78 1014.3
20260507030430 7 44 0.0 0.0 0.00 1.27 1.27 78 1014.3
20260507025927 7 44 0.0 0.0 0.00 1.27 1.27 77 1014.5
20260507025424 7 44 0.0 0.0 0.00 1.27 1.27 77 1014.3
20260507024922 7 44 0.0 0.0 0.00 1.27 1.27 77 1014.1
20260507024419 7 44 0.0 0.0 0.00 1.27 1.27 77 1014.1
20260507023915 7 44 0.0 0.0 0.00 1.27 1.27 78 1013.9
20260507023412 7 44 0.0 0.0 0.00 1.27 1.27 80 1014.1
20260507022909 7 44 0.0 0.0 0.00 1.27 1.27 78 1013.9
20260507022406 8 44 0.0 0.0 0.00 1.27 1.27 78 1013.8
20260507021902 8 44 0.0 0.0 0.00 1.27 1.27 77 1013.8
20260507021357 8 44 0.0 0.0 0.00 1.27 1.27 76 1013.8
20260507020855 8 44 0.0 0.0 0.00 1.27 1.27 75 1013.8
20260507020351 8 44 0.0 0.0 0.00 1.27 1.27 74 1013.9
20260507015848 8 44 0.0 0.0 0.00 1.27 1.27 76 1013.7
20260507015347 8 44 0.0 0.0 0.00 1.27 1.27 76 1013.5
20260507014844 8 44 0.0 0.0 0.00 1.27 1.27 77 1013.8
20260507014339 8 44 0.0 0.0 0.00 1.27 1.27 75 1013.5
20260507013836 8 44 0.0 0.0 0.00 1.27 1.27 74 1013.4
20260507013333 8 44 0.0 0.0 0.00 1.27 1.27 72 1013.2